FLOCK 3P-49 (42001 NORAD) Tracking and Keplerian Element Data

This shows tracking and keplerian element data for the satellite.

Feedback or suggestion? Click here.




ElementValue
Catalog42001
NameFLOCK 3P-49
Epoch Orbit32635
Epoch Day359.13229768
Epoch Year2022
RAAN65.5153
Inclination97.248
Eccentricity0.0004035
Argument of Perigee285.3517
Mean Anonmoly74.7296
Mean Motion15.64670274
Decay Rate0.0023232
L11 42001U 17008BF 22359.13229768 .00232320 00000+0 23386-2 0 9997
L22 42001 97.2480 65.5153 0004035 285.3517 74.7296 15.64670274326353



Live tracking and technical data element details for FLOCK 3P-49 (NORAD 42001). FLOCK 3P-49 can be tracked NOW for your location showing map with azimuth and elevation plus other details from your city location.







IsCatalogInMostPopularTable: catalog: 42001, numindb: 432
Update: records affected: 1



GetName: 42001 FLOCK 3P-49

Hit Count: updated at: Thu, 22 May 2025 03:04:06 GMT